Find Starlink 32844

NORAD ID: 62820 Int'l Des: 2025-018 Owner: SPXS Country: US Constellation: starlink operational
LEOCIRCULAR

Current View

Loading 3D Globe...

About Starlink 32844

Starlink 32844 (NORAD 62820) is a starlink constellation satellite (v2 mini) launched Jan 24, 2025 by SPXS of US. It operates in LEO, CIRCULAR orbit with a mass of 730.00 kg.

Upcoming Passes

Passes for default location (London). Set your location on the main map for personalized predictions.

Altitude History

Loading altitude history...

Two-Line Element Set

1 62820U 25018Q 26263.35082175 .00017423 00000-0 57174-3 0 9998
2 62820 53.1587 123.8694 0000905 110.7843 249.3255 15.31709273 92997
Epoch: Sep 20, 2026 • Age: 11 hours

Current Status

Altitude 482.5 km
Apogee / Perigee N/A
Velocity 7.62 km/s
Sub-Earth Point -35.23°S, 162.61°E
Launch Date Jan 24, 2025
Age 1.6 years
Type internet

Technical Details

Classification Payload
Mass 730.00 kg
Dry Mass 700.00 kg
Length 0.30 m
Span 29.00 m
Shape ? Box + pan
Manufacturer SPXS
Bus Type Starlink V2M
Phase Status In Orbit
Owner/State SPXS/US

Most Searched